Weather History for Sioux Falls, SD

Change the Weather History Date:

Saturday, July 13, 2013

  Actual Average Record
Temperature  
Mean Temperature 81 °F 73 °F  
Max Temperature 88 °F 84 °F 106 °F (1995)
Min Temperature 74 °F 62 °F 44 °F (1950)
Degree Days  
Heating Degree Days 0 0  
Month to date heating degree days 0 0  
Since 1 June heating degree days 69 51  
Since 1 July heating degree days 0 0  
Cooling Degree Days 16 9  
Month to date cooling degree days 124 104  
Year to date cooling degree days 302 275  
Since 1 June cooling degree days 260 239  
Growing Degree Days 30 (Base 50)    
Moisture  
Dew Point 69 °F    
Average Humidity 66    
Maximum Humidity 83    
Minimum Humidity 52    
Precipitation  
Precipitation 0.00 in 0.10 in 1.11 in (1921)
Month to date precipitation 0.25 1.34  
Year to date precipitation 16.84 14.59  
Snow  
Snow 0.00 in 0.00 in 0.00 in ()
Month to date snowfall 0.0 0.0  
Since 1 June snowfall 0.0 0.0  
Since 1 July snowfall 0.0 0.0  
Snow Depth 0.00 in    
Sea Level Pressure  
Sea Level Pressure 29.89 in    
Wind  
Wind Speed 11 mph (SSE)    
Max Wind Speed 21 mph    
Max Gust Speed 39 mph    
Visibility 10 miles    
Events      
T = Trace of Precipitation, MM = Missing Value Source: NWS Daily Summary

Daily Weather History Graph

Daily Weather History Graph

Search for Another Location

Airport:

Trip Planner

Search our weather history database for the weather conditions in past years. The results will help you decide how hot, cold, wet, or windy it might be!

Date:

Astronomy

Jul. 13, 2013 Rise Set
Actual Time 5:58 AM CDT 9:07 PM CDT
Civil Twilight 5:23 AM CDT 9:41 PM CDT
Nautical Twilight 4:38 AM CDT 10:26 PM CDT
Astronomical Twilight 3:44 AM CDT 11:20 PM CDT
Moon 11:26 AM CDT (7/13) 11:35 PM CDT (7/13)
Length of Visible Light 16h 18m
Length of Day
15h 08m
Waxing Crescent, 26% of the Moon is Illuminated
Jul 13
Waxing Crescent
Jul 15
First Quarter
Jul 22
Full
Jul 29
Last Quarter
Aug 6
New

Hourly Weather History & Observations

Time (CDT) Temp. Heat Index Dew Point Humidity Pressure Visibility Wind Dir Wind Speed Gust Speed Precip Events Conditions
12:56 AM 79.0 °F - 68.0 °F 69% 29.89 in 10.0 mi South 9.2 mph - N/A   Scattered Clouds
1:56 AM 78.1 °F - 68.0 °F 71% 29.89 in 10.0 mi South 11.5 mph - N/A   Clear
2:56 AM 77.0 °F - 68.0 °F 74% 29.90 in 10.0 mi South 10.4 mph - N/A   Clear
3:56 AM 75.9 °F - 66.9 °F 74% 29.89 in 10.0 mi South 6.9 mph - N/A   Clear
4:56 AM 75.2 °F - 68.0 °F 78% 29.87 in 10.0 mi South 4.6 mph - N/A   Mostly Cloudy
5:56 AM 73.4 °F - 68.0 °F 83% 29.86 in 10.0 mi South 9.2 mph - N/A   Mostly Cloudy
6:56 AM 75.9 °F - 64.9 °F 69% 29.88 in 10.0 mi SSE 11.5 mph 29.9 mph N/A   Mostly Cloudy
7:56 AM 75.9 °F - 64.9 °F 69% 29.87 in 10.0 mi South 13.8 mph - N/A   Mostly Cloudy
8:56 AM 78.1 °F - 64.9 °F 64% 29.90 in 10.0 mi South 12.7 mph 17.3 mph N/A   Mostly Cloudy
9:56 AM 80.1 °F 82.3 °F 66.9 °F 64% 29.88 in 10.0 mi South 10.4 mph - N/A   Mostly Cloudy
10:56 AM 82.0 °F 85.5 °F 69.1 °F 65% 29.88 in 10.0 mi SSE 10.4 mph - N/A   Mostly Cloudy
11:56 AM 84.9 °F 89.4 °F 70.0 °F 61% 29.90 in 10.0 mi SSW 10.4 mph - N/A   Mostly Cloudy
12:56 PM 84.0 °F 89.0 °F 71.1 °F 65% 29.90 in 10.0 mi South 11.5 mph - N/A   Mostly Cloudy
1:56 PM 84.0 °F 89.6 °F 72.0 °F 67% 29.90 in 10.0 mi South 9.2 mph - N/A   Mostly Cloudy
2:56 PM 87.1 °F 93.6 °F 72.0 °F 61% 29.90 in 10.0 mi SE 11.5 mph - N/A   Overcast
3:56 PM 86.0 °F 92.2 °F 72.0 °F 63% 29.88 in 10.0 mi SSE 11.5 mph - N/A   Overcast
4:56 PM 84.9 °F 90.7 °F 72.0 °F 65% 29.89 in 10.0 mi SSE 9.2 mph - N/A   Overcast
5:56 PM 87.1 °F 93.6 °F 72.0 °F 61% 29.88 in 10.0 mi SSE 10.4 mph 20.7 mph N/A   Overcast
6:56 PM 87.1 °F 93.6 °F 72.0 °F 61% 29.87 in 10.0 mi South 13.8 mph 20.7 mph N/A   Mostly Cloudy
7:56 PM 86.0 °F 91.5 °F 71.1 °F 61% 29.88 in 10.0 mi South 13.8 mph - N/A   Mostly Cloudy
8:56 PM 84.9 °F 90.1 °F 71.1 °F 63% 29.87 in 10.0 mi SE 11.5 mph - N/A   Overcast
9:56 PM 81.0 °F 84.9 °F 71.1 °F 72% 29.90 in 10.0 mi SE 16.1 mph - N/A   Mostly Cloudy
10:56 PM 79.0 °F - 70.0 °F 74% 29.93 in 10.0 mi SSE 15.0 mph 24.2 mph N/A   Mostly Cloudy
11:56 PM 78.1 °F - 70.0 °F 76% 29.95 in 10.0 mi SSE 13.8 mph 23.0 mph N/A   Scattered Clouds